Wetbulb
51.68 52.37 51.44 52.17 52.84 53.68 53.42 51.68 48.28 44.23 45.56 50.30 52.66 55.17 55.48 55.63 56.17 56.01 54.09 57.43 58.32 58.23 58.29 58.53 58.63 58.83 58.16 57.76 58.00 58.37 58.67 58.83 58.63 58.32 58.31 58.13 58.20 58.29
50.96 51.75 50.96 51.57 51.80 53.00 53.01 52.89 51.57 48.57 45.46 50.45 52.90 53.76 55.41 54.38 56.42 54.56 54.77 56.88 57.52 58.18 57.61 57.44 57.89 58.71 58.45 58.24 58.49 58.58 58.32 57.22 57.18 57.47 57.54 57.60 57.63 57.63
49.85 50.56 50.22 51.00 50.90 51.58 52.46 52.88 52.16 51.24 47.93 50.69 53.61 52.71 54.61 53.48 53.72 53.84 54.72 53.21 55.67 57.96 57.90 57.11 57.28 57.57 57.63 57.52 57.28 57.28 56.98 55.94 56.16 56.37 56.69 56.87 56.78 56.78
48.22 49.24 49.16 49.26 49.81 51.08 50.83 51.08 51.53 52.14 50.16 48.01 51.66 51.66 51.20 53.95 53.44 52.50 51.97 52.90 53.41 56.90 57.87 57.58 56.83 56.86 56.66 56.48 56.29 56.17 55.91 55.95 55.46 55.66 56.12 56.22 56.11 56.34
47.35 47.57 48.16 48.65 48.66 49.67 49.85 49.77 50.93 51.43 51.09 49.24 48.91 52.02 51.88 51.56 52.29 52.98 51.61 51.93 52.38 55.58 56.95 57.13 56.99 56.15 55.70 55.37 55.24 55.12 54.66 54.62 54.86 54.87 54.75 54.65 54.94 55.41
47.27 47.29 47.21 47.78 48.45 48.93 48.79 49.06 49.29 49.74 50.02 48.21 48.04 49.16 50.54 51.22 51.61 49.58 48.88 51.01 50.33 51.25 54.28 54.56 55.28 55.61 55.65 55.66 55.26 54.27 53.42 53.55 53.93 53.87 53.79 54.05 53.81 54.45
47.02 47.86 48.24 49.56 51.88 50.20 48.44 48.50 49.06 48.38 48.67 48.40 46.09 47.15 48.02 48.49 47.84 48.35 48.28 49.72 50.28 50.36 49.33 49.02 50.21 51.16 51.79 54.50 53.83 53.69 53.01 53.12 53.48 53.66 53.65 53.35 53.65 53.50
44.77 45.49 47.84 50.72 49.44 49.91 50.08 50.08 49.36 47.59 47.50 46.59 46.38 45.06 47.20 47.84 48.07 46.89 46.39 45.39 45.27 50.58 48.21 47.62 49.10 48.13 49.88 50.85 52.70 52.85 52.68 52.94 53.08 53.33 53.31 53.22 53.39 53.88
42.92 43.33 46.34 46.95 49.30 47.62 48.77 49.54 49.77 50.58 50.62 48.94 46.44 45.62 46.89 49.11 49.01 45.81 46.70 45.20 46.97 49.96 48.15 46.42 49.65 48.03 50.40 50.60 53.04 53.25 52.70 52.50 52.23 52.12 52.13 52.69 52.96 53.36
44.94 45.53 45.96 46.07 47.45 47.45 46.57 46.22 46.98 47.87 49.03 49.69 49.34 49.57 49.80 50.71 49.99 48.70 47.13 47.08 47.82 48.57 49.97 45.22 48.97 47.63 49.80 50.03 52.05 51.58 51.39 50.83 50.26 50.85 51.97 52.35 52.11 52.53
44.50 45.19 45.67 45.72 47.99 48.10 45.73 45.27 45.43 45.49 48.34 50.43 52.51 53.07 53.00 52.33 51.60 47.51 46.18 45.13 44.63 46.26 47.79 47.24 47.58 47.09 48.49 48.68 50.19 51.57 50.82 50.33 50.33 50.58 50.80 51.09 51.24 51.77
43.97 44.71 47.60 46.46 47.00 47.08 44.82 44.78 43.21 43.38 45.29 45.90 48.57 51.40 52.03 50.84 51.46 48.81 46.87 44.44 44.82 44.28 48.33 45.98 46.41 46.73 44.46 48.33 48.47 49.71 49.28 50.22 49.82 49.78 50.30 50.58 50.80 50.29
42.24 42.71 44.40 46.97 46.45 46.83 47.00 43.94 43.28 45.91 46.97 45.88 48.14 49.70 49.97 48.41 47.98 48.96 48.02 46.73 45.06 45.05 50.13 48.18 46.87 46.72 45.73 47.46 49.68 50.88 51.60 51.53 49.47 49.18 49.83 50.11 50.15 50.19
41.69 42.87 43.87 46.00 45.94 46.48 46.25 46.62 47.67 48.08 46.35 46.59 46.70 46.52 47.15 46.10 46.58 47.24 48.07 47.98 49.39 48.58 49.59 49.94 47.03 45.87 46.21 45.20 44.11 49.11 50.10 50.37 50.45 49.81 49.89 49.91 50.53 50.79
42.98 43.67 44.36 45.01 46.06 46.13 47.21 47.79 48.38 46.11 45.79 45.60 45.46 45.11 45.30 45.69 46.63 46.64 47.85 50.25 50.39 50.07 48.34 48.94 47.95 46.88 45.77 43.54 44.06 45.18 46.65 48.84 50.61 50.34 50.56 49.56 49.11 49.62
43.77 43.36 44.42 45.06 46.07 46.44 46.44 47.10 47.03 47.03 46.33 45.98 45.34 45.80 46.25 45.93 46.13 47.13 46.52 46.89 45.55 45.41 47.68 48.21 47.23 46.23 44.38 44.68 45.02 44.88 46.70 45.49 49.28 49.88 50.14 50.01 49.74 50.10
42.73 43.39 43.19 43.21 43.01 43.99 45.25 46.48 47.08 46.94 46.05 46.00 45.57 45.37 45.46 45.79 45.66 46.59 45.48 45.56 43.98 44.14 46.38 46.19 46.51 46.74 45.59 45.46 43.71 45.15 44.98 46.58 48.40 48.33 48.28 47.71 48.87 49.81
41.81 41.05 41.04 39.50 40.93 42.30 43.14 43.73 44.80 45.66 45.21 45.21 45.09 44.86 44.14 43.83 43.43 45.38 46.27 45.19 43.90 45.82 47.32 47.67 46.19 44.81 45.03 45.72 47.38 45.00 45.78 47.45 48.26 48.42 48.54 47.10 47.33 49.70
41.84 41.55 40.65 40.61 40.68 41.00 41.27 41.48 41.02 42.40 43.42 43.33 43.46 43.48 43.54 43.32 44.93 44.64 44.54 44.72 45.05 47.62 48.11 47.93 45.83 44.68 42.21 41.56 46.75 44.82 47.40 48.31 48.34 47.83 48.47 47.74 46.81 48.47
39.81 39.30 39.35 40.16 40.28 40.17 40.41 40.47 41.21 42.02 42.56 43.01 43.41 44.13 44.78 44.38 43.74 43.88 44.34 45.49 47.67 47.68 47.33 47.92 47.22 46.17 44.48 44.00 45.18 47.13 42.84 48.67 48.07 47.53 47.89 49.41 50.01 50.41
39.67 39.69 40.26 40.22 40.18 40.39 40.68 41.20 41.72 42.11 42.59 42.00 41.88 42.26 42.93 43.29 43.24 45.01 46.87 47.71 47.84 46.96 45.99 46.10 48.01 50.13 48.78 48.11 44.93 44.40 45.33 43.30 48.07 49.16 49.83 48.79 48.56 49.14
39.50 39.25 39.49 39.61 39.59 39.77 40.14 41.05 41.16 39.61 39.34 39.70 40.16 40.93 41.87 43.18 44.31 47.58 48.02 47.58 47.16 46.80 47.28 48.26 49.23 48.74 46.83 45.43 43.87 43.98 44.86 46.57 45.76 44.89 45.47 47.51 47.92 45.73
38.95 39.14 39.13 39.22 39.63 39.67 40.15 40.02 38.85 38.57 38.62 39.26 40.02 41.00 42.62 42.97 46.00 48.70 48.51 47.88 47.42 46.97 47.08 47.28 47.75 47.63 46.83 46.09 45.09 45.44 45.73 45.69 45.78 45.83 45.34 45.93 46.06 46.15
MSLP
1009.09 1008.93 1009.00 1008.96 1009.00 1008.86 1009.12 1009.79 1009.94 1009.70 1009.07 1007.98 1007.62 1007.61 1008.00 1008.68 1009.16 1009.76 1010.19 1010.89 1011.45 1012.17 1012.93 1013.43 1013.86 1014.23 1014.58 1014.96 1015.30 1015.63 1015.94 1016.26 1016.56 1016.91 1017.17 1017.39 1017.55 1017.72
1008.35 1007.90 1007.90 1007.99 1008.11 1008.09 1008.08 1008.40 1009.02 1009.21 1008.62 1007.98 1007.75 1006.95 1007.19 1007.85 1008.37 1009.15 1009.63 1010.19 1010.93 1011.49 1012.15 1012.86 1013.39 1013.82 1014.21 1014.56 1014.90 1015.25 1015.63 1015.99 1016.30 1016.57 1016.83 1017.03 1017.22 1017.40
1007.49 1007.27 1007.19 1007.34 1007.47 1007.59 1007.58 1007.49 1007.73 1008.28 1008.29 1007.91 1007.79 1007.70 1007.21 1007.69 1007.97 1008.54 1009.21 1009.90 1010.45 1010.98 1011.51 1012.17 1012.88 1013.40 1013.83 1014.15 1014.52 1014.93 1015.33 1015.69 1015.99 1016.25 1016.47 1016.70 1016.88 1017.05
1006.61 1006.60 1006.42 1006.61 1006.89 1007.01 1007.22 1007.17 1006.97 1007.45 1007.78 1008.19 1007.96 1007.64 1007.45 1007.93 1007.64 1008.25 1008.88 1009.10 1009.65 1010.47 1011.01 1011.58 1012.27 1012.90 1013.40 1013.83 1014.18 1014.54 1014.95 1015.28 1015.56 1015.79 1016.00 1016.31 1016.46 1016.60
1005.73 1005.71 1005.67 1005.88 1006.04 1006.22 1006.53 1006.71 1006.65 1006.70 1007.02 1007.70 1007.87 1007.83 1007.99 1007.80 1007.45 1007.80 1008.52 1008.98 1009.12 1009.66 1010.41 1011.04 1011.71 1012.40 1012.94 1013.43 1013.81 1014.15 1014.51 1014.89 1015.12 1015.39 1015.63 1015.82 1015.95 1016.12
1005.41 1005.08 1005.14 1005.23 1005.33 1005.51 1005.94 1006.11 1006.25 1006.22 1006.73 1007.32 1007.78 1008.02 1008.02 1007.87 1007.41 1007.62 1008.03 1008.58 1009.02 1009.12 1009.90 1010.47 1011.13 1011.77 1012.34 1012.89 1013.31 1013.67 1014.04 1014.31 1014.55 1014.83 1015.10 1015.34 1015.52 1015.67
1004.74 1004.39 1004.34 1004.64 1004.53 1004.90 1005.38 1005.72 1005.87 1005.92 1006.09 1006.81 1007.43 1007.85 1007.70 1007.62 1007.27 1007.48 1007.60 1008.23 1008.67 1008.86 1009.38 1010.02 1010.55 1011.11 1011.61 1012.09 1012.53 1013.02 1013.36 1013.59 1013.86 1014.15 1014.47 1014.78 1015.05 1015.26
1004.69 1004.81 1003.75 1003.68 1004.11 1004.66 1005.20 1005.66 1005.90 1005.95 1005.93 1006.14 1006.73 1007.38 1007.22 1007.30 1007.15 1007.30 1007.69 1007.94 1008.30 1008.23 1008.87 1009.36 1009.74 1010.22 1010.61 1011.05 1011.35 1012.00 1012.36 1012.71 1013.05 1013.36 1013.71 1014.09 1014.42 1014.72
1004.27 1004.62 1003.59 1002.86 1003.25 1003.77 1004.27 1004.68 1004.96 1005.31 1005.54 1005.82 1006.05 1006.56 1006.82 1006.61 1006.70 1006.69 1007.18 1007.38 1007.24 1007.59 1008.09 1008.61 1008.95 1009.39 1009.67 1010.01 1010.32 1010.81 1011.40 1011.80 1012.20 1012.59 1012.92 1013.30 1013.69 1014.07
1003.24 1003.00 1002.46 1002.56 1002.60 1002.81 1003.42 1003.72 1003.93 1004.35 1004.75 1004.89 1005.16 1005.60 1005.95 1006.25 1006.22 1006.20 1006.61 1006.96 1007.25 1007.42 1007.54 1008.14 1008.51 1008.79 1009.05 1009.32 1009.61 1010.03 1010.63 1011.12 1011.56 1011.93 1012.26 1012.59 1012.98 1013.37
1002.62 1002.59 1002.44 1002.07 1002.26 1002.52 1002.99 1003.37 1003.58 1003.88 1004.43 1004.42 1004.50 1004.72 1005.26 1005.75 1006.02 1006.10 1006.21 1006.55 1007.00 1007.26 1007.67 1007.79 1008.13 1008.38 1008.56 1008.74 1008.83 1009.20 1009.80 1010.31 1010.81 1011.30 1011.68 1012.04 1012.35 1012.78
1001.80 1001.91 1001.64 1001.51 1001.83 1002.30 1002.72 1002.90 1003.07 1003.41 1004.10 1004.22 1004.01 1004.02 1004.56 1005.06 1005.59 1005.80 1005.68 1005.95 1006.09 1006.82 1006.76 1007.35 1007.93 1008.26 1008.41 1008.28 1008.42 1008.63 1009.24 1009.67 1010.15 1010.58 1010.99 1011.44 1011.86 1012.24
1000.80 1000.79 1000.63 1000.62 1001.20 1001.64 1002.13 1002.39 1002.55 1003.32 1003.42 1003.51 1003.35 1003.31 1003.70 1004.37 1004.92 1005.16 1005.30 1005.39 1005.56 1005.92 1005.59 1006.33 1007.17 1007.62 1007.95 1008.17 1008.30 1008.47 1008.68 1008.93 1009.56 1010.01 1010.40 1010.80 1011.26 1011.63
999.93 999.90 999.88 1000.21 1000.62 1000.97 1001.33 1001.60 1002.07 1002.43 1002.60 1002.63 1002.66 1002.88 1003.37 1003.60 1004.01 1004.41 1004.72 1004.73 1004.59 1005.21 1005.62 1006.09 1006.75 1007.04 1007.44 1008.21 1008.71 1008.67 1008.60 1008.72 1008.84 1009.19 1009.40 1009.99 1010.58 1011.02
999.14 999.47 999.77 999.98 1000.02 1000.28 1000.46 1000.75 1000.98 1001.27 1001.49 1001.77 1002.03 1002.47 1002.80 1003.11 1003.29 1003.70 1003.97 1004.19 1004.35 1005.35 1005.84 1006.12 1006.44 1006.97 1007.48 1007.93 1008.33 1008.43 1008.66 1008.61 1008.64 1008.80 1009.03 1009.33 1009.81 1010.24
998.32 998.76 999.02 999.14 999.33 999.42 999.66 999.78 999.96 1000.22 1000.58 1001.08 1001.62 1001.73 1002.20 1002.38 1002.74 1002.92 1003.52 1003.99 1004.77 1005.30 1005.72 1006.16 1006.49 1006.87 1007.32 1007.73 1008.04 1008.12 1008.16 1008.25 1008.15 1008.38 1008.62 1008.93 1009.24 1009.54
997.96 998.23 998.28 998.48 998.61 998.73 998.77 998.88 999.12 999.50 999.80 1000.36 1001.07 1001.23 1001.70 1002.07 1002.35 1002.73 1003.31 1003.91 1004.48 1005.06 1005.31 1005.81 1006.20 1006.36 1006.71 1007.12 1007.42 1007.55 1007.68 1007.77 1007.84 1008.07 1008.41 1008.63 1008.90 1009.14
997.06 997.34 997.45 997.72 997.76 997.88 998.12 998.40 998.60 998.96 999.17 999.79 1000.20 1000.77 1001.41 1001.91 1002.25 1002.35 1002.93 1003.66 1004.12 1004.14 1004.20 1004.86 1005.68 1005.99 1006.13 1006.64 1006.75 1006.94 1007.20 1007.21 1007.34 1007.58 1007.83 1008.09 1008.35 1008.75
996.33 996.75 996.97 996.60 996.73 997.25 997.75 998.07 998.44 998.68 998.92 999.39 1000.07 1000.80 1001.40 1001.62 1001.67 1002.27 1002.96 1003.36 1003.30 1003.10 1003.52 1004.40 1004.98 1005.25 1005.59 1005.82 1006.29 1006.51 1006.52 1006.62 1006.97 1007.34 1007.57 1007.78 1008.04 1008.44
996.90 997.27 997.35 997.57 997.74 997.89 998.21 998.51 998.81 999.27 999.74 1000.03 1000.30 1000.63 1001.02 1001.36 1001.89 1002.23 1002.42 1002.32 1002.18 1002.71 1003.40 1003.91 1004.30 1004.67 1004.90 1005.16 1005.69 1006.35 1006.22 1006.25 1006.63 1007.04 1007.39 1007.62 1007.92 1008.21
997.88 998.10 998.34 998.48 998.61 998.78 999.01 999.18 999.37 999.70 999.98 1000.38 1000.76 1001.11 1001.36 1001.46 1001.48 1001.34 1001.36 1001.50 1001.89 1002.51 1003.11 1003.63 1003.81 1004.18 1004.70 1005.02 1005.87 1006.53 1006.89 1006.36 1006.41 1006.86 1007.10 1007.41 1007.85 1008.27
999.02 999.16 999.34 999.44 999.59 999.74 999.93 1000.08 1000.38 1000.76 1000.92 1000.97 1000.99 1001.05 1000.98 1000.82 1000.74 1000.50 1000.68 1001.26 1001.91 1002.47 1003.08 1003.68 1004.03 1004.48 1005.00 1005.51 1005.96 1006.48 1006.94 1007.12 1007.08 1007.11 1007.46 1007.74 1008.20 1008.59
1000.52 1000.51 1000.53 1000.66 1000.70 1000.72 1000.88 1001.05 1001.13 1001.13 1001.00 1000.88 1000.81 1000.65 1000.46 1000.51 1000.32 1000.29 1000.73 1001.47 1002.08 1002.73 1003.29 1003.97 1004.45 1004.91 1005.29 1005.54 1006.07 1006.36 1006.83 1007.23 1007.52 1007.85 1008.33 1008.25 1008.38 1008.72
Wind_Speed
14 13 11 9 9 8 9 9 10 9 10 12 6 10 8 8 9 10 13 20 23 22 20 20 19 17 18 17 16 16 15 14 12 12 12 12 11 11
12 14 12 9 10 9 9 9 9 10 11 5 10 4 10 8 9 12 11 11 23 22 21 20 19 18 17 16 15 13 12 13 13 14 14 13 12 13
15 14 14 12 9 8 8 8 9 7 11 7 8 10 5 10 7 9 7 10 10 22 21 20 18 17 18 16 14 13 12 14 14 15 15 14 14 15
16 16 14 10 13 11 8 11 8 10 7 11 9 7 4 9 8 9 7 8 9 18 20 19 18 17 17 15 15 14 13 13 15 16 17 16 16 16
15 14 14 13 13 10 10 9 9 8 7 8 7 5 5 4 5 6 8 8 8 11 21 20 18 17 16 16 15 14 13 13 14 15 16 17 17 17
17 15 15 15 16 10 10 10 10 8 8 4 6 7 7 6 5 6 7 7 7 8 13 13 16 17 17 17 18 16 14 15 17 17 16 16 18 17
16 15 14 16 17 13 8 8 9 9 6 7 5 8 7 7 9 4 6 7 8 7 7 8 7 9 10 18 15 18 17 19 19 19 18 17 17 18
13 14 17 17 14 17 20 20 16 11 9 7 7 9 12 9 8 8 7 5 8 8 9 8 9 9 8 8 15 21 19 22 20 20 20 19 18 18
11 14 19 10 15 13 15 20 22 24 24 11 9 11 13 11 11 11 10 7 8 6 11 8 7 8 7 8 12 15 21 19 20 20 20 19 19 19
17 17 11 12 13 8 9 11 11 9 11 13 13 13 12 12 11 10 11 10 5 3 9 6 7 8 5 6 12 15 16 16 16 15 18 19 19 19
15 16 15 12 18 15 10 11 10 9 14 22 20 22 19 16 11 2 5 7 7 6 4 5 5 4 4 6 5 16 18 18 18 18 18 17 16 17
13 14 26 16 17 17 13 12 11 10 10 13 13 15 20 16 20 9 7 8 7 7 6 7 6 5 3 3 4 4 7 16 17 18 18 17 16 8
10 11 11 15 18 23 24 12 13 12 16 14 11 7 9 10 9 9 9 9 9 7 5 8 7 7 4 2 2 4 4 4 7 9 16 16 16 14
11 8 9 15 18 18 16 21 23 22 11 10 7 8 7 8 9 10 12 9 5 4 6 6 4 5 5 4 5 3 3 3 4 7 6 12 17 18
10 14 21 22 22 20 25 24 22 10 10 9 8 8 8 8 10 11 12 6 4 4 2 5 4 5 4 4 3 5 4 5 5 6 6 7 8 8
17 14 17 19 21 17 15 15 11 9 9 7 7 8 8 8 8 6 6 6 5 5 5 5 7 6 6 6 7 5 6 4 5 5 5 6 7 8
11 8 8 8 8 9 10 11 10 8 9 8 9 7 7 7 9 10 7 6 6 7 7 6 8 8 8 8 6 6 5 5 5 5 6 6 7 8
9 9 7 8 12 11 8 8 6 12 9 9 7 8 7 7 7 5 6 6 9 7 5 8 6 3 3 5 7 5 6 6 4 6 5 6 6 6
7 1 2 5 6 6 7 7 7 6 6 6 5 6 8 10 8 6 6 7 8 7 7 7 7 4 4 4 3 4 5 4 5 5 5 5 5 6
9 8 8 7 8 8 8 7 6 5 5 4 5 3 3 4 5 8 8 9 7 7 6 6 6 6 5 4 3 2 8 5 5 5 4 2 4 11
10 10 9 9 9 8 7 7 6 6 5 4 2 2 4 6 7 7 9 12 11 7 6 4 4 10 6 5 4 2 3 12 7 6 7 6 4 6
11 11 11 10 9 8 7 6 6 5 3 1 3 4 4 5 6 7 8 9 8 6 7 6 7 7 6 6 6 5 4 6 10 15 11 4 3 4
11 11 10 9 8 8 7 7 6 4 2 1 1 2 3 5 5 7 8 9 9 9 8 7 7 7 7 8 7 6 9 6 3 5 4 8 15 19
Wind_Direction
254 242 243 247 249 253 215 223 239 244 247 260 245 195 201 208 207 195 202 194 197 201 206 209 210 213 214 219 222 226 228 232 235 243 250 254 257 263
259 247 246 243 249 248 245 212 226 242 255 237 262 223 191 207 192 205 199 195 199 201 202 206 210 210 212 218 219 221 225 233 240 245 248 251 256 262
254 250 247 247 246 253 264 246 214 228 255 260 246 273 281 192 208 186 205 191 191 200 200 201 205 208 213 211 214 218 225 232 238 244 246 247 251 257
248 251 248 246 253 238 244 263 250 218 222 254 257 253 241 257 197 172 204 210 194 196 202 200 201 204 207 212 216 216 223 230 236 239 240 246 252 255
257 256 253 245 243 233 233 238 249 245 207 237 256 258 267 261 201 204 184 229 198 190 194 199 195 201 210 217 220 216 219 224 231 239 243 247 249 251
254 254 254 248 241 239 251 252 254 251 219 197 237 258 253 265 235 206 189 203 203 202 188 192 200 208 215 218 222 223 219 225 231 234 235 236 239 243
275 251 236 248 258 250 259 261 258 256 217 205 211 247 245 233 225 202 198 196 206 201 183 192 193 202 216 224 229 226 226 229 231 231 230 227 230 238
259 285 256 234 242 250 257 255 258 272 275 194 204 236 242 230 224 194 212 189 201 196 192 203 187 203 207 208 210 224 228 230 230 230 230 230 229 230
226 257 248 244 227 228 242 246 242 243 248 249 219 223 246 230 218 187 208 208 214 196 192 210 192 210 201 212 205 203 218 226 225 228 229 228 231 233
254 253 253 255 265 246 249 250 246 250 260 240 239 224 224 244 239 211 206 204 229 258 179 203 196 216 202 210 205 201 209 217 220 226 229 226 226 229
245 255 260 246 254 263 266 262 257 248 265 271 269 230 231 240 238 269 197 177 201 215 193 174 206 216 216 219 213 196 205 213 218 224 228 231 228 226
246 235 249 244 254 259 259 254 243 243 246 256 263 229 228 222 229 223 214 202 198 212 192 179 196 189 212 218 220 215 203 215 216 221 223 224 222 213
241 236 239 239 241 244 240 239 242 241 238 240 246 234 218 197 206 215 228 203 202 223 179 171 194 189 193 133 222 223 233 198 200 218 221 217 212 209
246 256 264 259 253 243 238 244 244 239 243 237 227 222 200 191 195 208 214 217 199 206 147 189 175 195 176 177 228 222 242 243 209 229 210 199 205 208
244 251 256 256 249 237 239 242 242 238 226 232 213 202 195 198 193 202 198 201 144 203 205 185 206 167 178 200 206 206 208 224 229 224 209 189 189 197
243 243 240 238 242 246 245 244 238 228 217 212 215 191 186 188 187 179 179 179 187 208 202 206 208 204 208 215 212 223 199 212 201 201 191 183 186 193
233 241 236 242 249 242 241 235 220 223 226 201 185 167 174 189 187 188 179 174 190 207 196 181 203 212 210 194 200 213 222 236 195 190 181 188 184 187
228 230 235 252 232 218 225 229 204 200 178 165 157 160 168 188 198 180 149 180 206 205 169 151 150 155 118 193 212 199 215 206 173 183 180 177 165 171
234 232 157 103 109 123 127 130 119 113 109 119 139 170 191 206 171 154 177 198 203 192 157 151 158 154 160 164 142 74 190 153 155 169 173 174 163 178
83 90 79 79 80 82 82 89 101 111 129 161 166 143 122 142 172 190 190 193 186 139 144 153 158 175 174 153 122 97 12 150 160 166 160 149 108 126
73 73 73 73 71 70 68 62 62 62 63 71 90 155 186 195 195 194 185 188 138 139 136 147 147 114 110 102 83 74 33 55 103 136 134 120 134 109
57 57 54 54 56 56 54 50 58 59 73 149 185 197 199 199 194 190 152 141 138 132 114 119 127 121 110 116 111 104 112 91 70 72 58 99 107 133
50 49 50 50 47 47 44 49 41 36 16 352 211 206 183 184 228 154 140 123 123 121 132 137 130 120 122 120 113 108 106 92 83 90 47 83 96 104